Year,Month,Day,Hour,Minute,Value (Times are PST for temperature in C)
2015,05,31,00,00,10.10
2015,05,31,00,01,10.10
2015,05,31,00,02,10.10
2015,05,31,00,03,10.10
2015,05,31,00,04,10.10
2015,05,31,00,05,10.10
2015,05,31,00,06,10.10
2015,05,31,00,07,10.10
2015,05,31,00,08,10.10
2015,05,31,00,09,10.10
2015,05,31,00,10,10.10
2015,05,31,00,11,10.10
2015,05,31,00,12,10.00
2015,05,31,00,13,9.90
2015,05,31,00,14,9.90
2015,05,31,00,15,9.90
2015,05,31,00,16,9.90
2015,05,31,00,17,9.90
2015,05,31,00,18,9.90
2015,05,31,00,19,9.90
2015,05,31,00,20,9.90
2015,05,31,00,21,9.90
2015,05,31,00,22,9.90
2015,05,31,00,23,9.90
2015,05,31,00,24,9.90
2015,05,31,00,25,9.90
2015,05,31,00,26,9.90
2015,05,31,00,27,9.90
2015,05,31,00,28,9.90
2015,05,31,00,29,9.90
2015,05,31,00,30,9.90
2015,05,31,00,31,9.90
2015,05,31,00,32,9.90
2015,05,31,00,33,9.90
2015,05,31,00,34,9.90
2015,05,31,00,35,9.90
2015,05,31,00,36,9.90
2015,05,31,00,37,9.90
2015,05,31,00,38,9.90
2015,05,31,00,39,9.90
2015,05,31,00,40,9.90
2015,05,31,00,41,9.90
2015,05,31,00,42,9.90
2015,05,31,00,43,9.90
2015,05,31,00,44,9.90
2015,05,31,00,45,9.80
2015,05,31,00,46,9.80
2015,05,31,00,47,9.80
2015,05,31,00,48,9.80
2015,05,31,00,49,9.80
2015,05,31,00,50,9.70
2015,05,31,00,51,9.70
2015,05,31,00,52,9.70
2015,05,31,00,53,9.70
2015,05,31,00,54,9.70
2015,05,31,00,55,9.70
2015,05,31,00,56,9.70
2015,05,31,00,57,9.70
2015,05,31,00,58,9.60
2015,05,31,00,59,9.60
2015,05,31,01,00,9.60
2015,05,31,01,01,9.60
2015,05,31,01,02,9.60
2015,05,31,01,03,9.50
2015,05,31,01,04,9.50
2015,05,31,01,05,9.50
2015,05,31,01,06,9.50
2015,05,31,01,07,9.40
2015,05,31,01,08,9.40
2015,05,31,01,09,9.40
2015,05,31,01,10,9.40
2015,05,31,01,11,9.40
2015,05,31,01,12,9.40
2015,05,31,01,13,9.30
2015,05,31,01,14,9.30
2015,05,31,01,15,9.30
2015,05,31,01,16,9.30
2015,05,31,01,17,9.30
2015,05,31,01,18,9.30
2015,05,31,01,19,9.30
2015,05,31,01,20,9.30
2015,05,31,01,21,9.30
2015,05,31,01,22,9.30
2015,05,31,01,23,9.30
2015,05,31,01,24,9.30
2015,05,31,01,25,9.30
2015,05,31,01,26,9.30
2015,05,31,01,27,9.20
2015,05,31,01,28,9.20
2015,05,31,01,29,9.20
2015,05,31,01,30,9.20
2015,05,31,01,31,9.20
2015,05,31,01,32,9.20
2015,05,31,01,33,9.20
2015,05,31,01,34,9.20
2015,05,31,01,35,9.20
2015,05,31,01,36,9.20
2015,05,31,01,37,9.20
2015,05,31,01,38,9.20
2015,05,31,01,39,9.20
2015,05,31,01,40,9.20
2015,05,31,01,41,9.20
2015,05,31,01,42,9.20
2015,05,31,01,43,9.20
2015,05,31,01,44,9.20
2015,05,31,01,45,9.20
2015,05,31,01,46,9.20
2015,05,31,01,47,9.20
2015,05,31,01,48,9.20
2015,05,31,01,49,9.20
2015,05,31,01,50,9.20
2015,05,31,01,51,9.20
2015,05,31,01,52,9.10
2015,05,31,01,53,9.10
2015,05,31,01,54,9.10
2015,05,31,01,55,9.10
2015,05,31,01,56,9.10
2015,05,31,01,57,9.10
2015,05,31,01,58,9.10
2015,05,31,01,59,9.10
2015,05,31,02,00,9.10
2015,05,31,02,01,9.10
2015,05,31,02,02,9.00
2015,05,31,02,03,9.00
2015,05,31,02,04,9.00
2015,05,31,02,05,9.00
2015,05,31,02,06,9.00
2015,05,31,02,07,9.00
2015,05,31,02,08,9.00
2015,05,31,02,09,9.00
2015,05,31,02,10,9.00
2015,05,31,02,11,9.00
2015,05,31,02,12,9.00
2015,05,31,02,13,9.00
2015,05,31,02,14,9.00
2015,05,31,02,15,9.00
2015,05,31,02,16,9.00
2015,05,31,02,17,9.00
2015,05,31,02,18,9.00
2015,05,31,02,19,9.00
2015,05,31,02,20,9.00
2015,05,31,02,21,9.00
2015,05,31,02,22,9.00
2015,05,31,02,23,9.00
2015,05,31,02,24,9.00
2015,05,31,02,25,9.00
2015,05,31,02,26,9.00
2015,05,31,02,27,9.00
2015,05,31,02,28,8.90
2015,05,31,02,29,8.90
2015,05,31,02,30,8.90
2015,05,31,02,31,8.90
2015,05,31,02,32,8.90
2015,05,31,02,33,8.90
2015,05,31,02,34,8.90
2015,05,31,02,35,8.90
2015,05,31,02,36,8.90
2015,05,31,02,37,8.90
2015,05,31,02,38,8.90
2015,05,31,02,39,8.90
2015,05,31,02,40,8.90
2015,05,31,02,41,8.80
2015,05,31,02,42,8.80
2015,05,31,02,43,8.80
2015,05,31,02,44,8.80
2015,05,31,02,45,8.80
2015,05,31,02,46,8.80
2015,05,31,02,47,8.80
2015,05,31,02,48,8.80
2015,05,31,02,49,8.80
2015,05,31,02,50,8.80
2015,05,31,02,51,8.80
2015,05,31,02,52,8.80
2015,05,31,02,53,8.80
2015,05,31,02,54,8.80
2015,05,31,02,55,8.70
2015,05,31,02,56,8.70
2015,05,31,02,57,8.70
2015,05,31,02,58,8.70
2015,05,31,02,59,8.70
2015,05,31,03,00,8.70
2015,05,31,03,01,8.70
2015,05,31,03,02,8.70
2015,05,31,03,03,8.70
2015,05,31,03,04,8.70
2015,05,31,03,05,8.70
2015,05,31,03,06,8.70
2015,05,31,03,07,8.70
2015,05,31,03,08,8.70
2015,05,31,03,09,8.70
2015,05,31,03,10,8.70
2015,05,31,03,11,8.70
2015,05,31,03,12,8.70
2015,05,31,03,13,8.70
2015,05,31,03,14,8.70
2015,05,31,03,15,8.70
2015,05,31,03,16,8.70
2015,05,31,03,17,8.70
2015,05,31,03,18,8.70
2015,05,31,03,19,8.70
2015,05,31,03,20,8.70
2015,05,31,03,21,8.70
2015,05,31,03,22,8.70
2015,05,31,03,23,8.70
2015,05,31,03,24,8.70
2015,05,31,03,25,8.70
2015,05,31,03,26,8.70
2015,05,31,03,27,8.70
2015,05,31,03,28,8.70
2015,05,31,03,29,8.70
2015,05,31,03,30,8.70
2015,05,31,03,31,8.70
2015,05,31,03,32,8.70
2015,05,31,03,33,8.70
2015,05,31,03,34,8.70
2015,05,31,03,35,8.70
2015,05,31,03,36,8.70
2015,05,31,03,37,8.60
2015,05,31,03,38,8.60
2015,05,31,03,39,8.60
2015,05,31,03,40,8.60
2015,05,31,03,41,8.60
2015,05,31,03,42,8.60
2015,05,31,03,43,8.60
2015,05,31,03,44,8.60
2015,05,31,03,45,8.60
2015,05,31,03,46,8.60
2015,05,31,03,47,8.60
2015,05,31,03,48,8.60
2015,05,31,03,49,8.60
2015,05,31,03,50,8.60
2015,05,31,03,51,8.60
2015,05,31,03,52,8.50
2015,05,31,03,53,8.50
2015,05,31,03,54,8.50
2015,05,31,03,55,8.50
2015,05,31,03,56,8.50
2015,05,31,03,57,8.50
2015,05,31,03,58,8.50
2015,05,31,03,59,8.50
2015,05,31,04,00,8.50
2015,05,31,04,01,8.50
2015,05,31,04,02,8.50
2015,05,31,04,03,8.40
2015,05,31,04,04,8.40
2015,05,31,04,05,8.40
2015,05,31,04,06,8.40
2015,05,31,04,07,8.40
2015,05,31,04,08,8.40
2015,05,31,04,09,8.40
2015,05,31,04,10,8.40
2015,05,31,04,11,8.40
2015,05,31,04,12,8.40
2015,05,31,04,13,8.40
2015,05,31,04,14,8.40
2015,05,31,04,15,8.40
2015,05,31,04,16,8.50
2015,05,31,04,17,8.50
2015,05,31,04,18,8.50
2015,05,31,04,19,8.50
2015,05,31,04,20,8.50
2015,05,31,04,21,8.50
2015,05,31,04,22,8.50
2015,05,31,04,23,8.50
2015,05,31,04,24,8.50
2015,05,31,04,25,8.50
2015,05,31,04,26,8.50
2015,05,31,04,27,8.50
2015,05,31,04,28,8.50
2015,05,31,04,29,8.50
2015,05,31,04,30,8.50
2015,05,31,04,31,8.50
2015,05,31,04,32,8.50
2015,05,31,04,33,8.50
2015,05,31,04,34,8.50
2015,05,31,04,35,8.50
2015,05,31,04,36,8.50
2015,05,31,04,37,8.50
2015,05,31,04,38,8.40
2015,05,31,04,39,8.40
2015,05,31,04,40,8.40
2015,05,31,04,41,8.40
2015,05,31,04,42,8.40
2015,05,31,04,43,8.40
2015,05,31,04,44,8.40
2015,05,31,04,45,8.40
2015,05,31,04,46,8.40
2015,05,31,04,47,8.40
2015,05,31,04,48,8.40
2015,05,31,04,49,8.30
2015,05,31,04,50,8.30
2015,05,31,04,51,8.30
2015,05,31,04,52,8.30
2015,05,31,04,53,8.30
2015,05,31,04,54,8.30
2015,05,31,04,55,8.30
2015,05,31,04,56,8.30
2015,05,31,04,57,8.30
2015,05,31,04,58,8.30
2015,05,31,04,59,8.30
2015,05,31,05,00,8.30
2015,05,31,05,01,8.30
2015,05,31,05,02,8.30
2015,05,31,05,03,8.40
2015,05,31,05,04,8.40
2015,05,31,05,05,8.40
2015,05,31,05,06,8.40
2015,05,31,05,07,8.40
2015,05,31,05,08,8.40
2015,05,31,05,09,8.40
2015,05,31,05,10,8.40
2015,05,31,05,11,8.40
2015,05,31,05,12,8.50
2015,05,31,05,13,8.50
2015,05,31,05,14,8.50
2015,05,31,05,15,8.50
2015,05,31,05,16,8.50
2015,05,31,05,17,8.50
2015,05,31,05,18,8.50
2015,05,31,05,19,8.50
2015,05,31,05,20,8.50
2015,05,31,05,21,8.50
2015,05,31,05,22,8.50
2015,05,31,05,23,8.50
2015,05,31,05,24,8.50
2015,05,31,05,25,8.50
2015,05,31,05,26,8.50
2015,05,31,05,27,8.50
2015,05,31,05,28,8.50
2015,05,31,05,29,8.50
2015,05,31,05,30,8.50
2015,05,31,05,31,8.50
2015,05,31,05,32,8.50
2015,05,31,05,33,8.50
2015,05,31,05,34,8.50
2015,05,31,05,35,8.50
2015,05,31,05,36,8.50
2015,05,31,05,37,8.50
2015,05,31,05,38,8.50
2015,05,31,05,39,8.50
2015,05,31,05,40,8.50
2015,05,31,05,41,8.50
2015,05,31,05,42,8.50
2015,05,31,05,43,8.50
2015,05,31,05,44,8.60
2015,05,31,05,45,8.60
2015,05,31,05,46,8.60
2015,05,31,05,47,8.60
2015,05,31,05,48,8.60
2015,05,31,05,49,8.60
2015,05,31,05,50,8.60
2015,05,31,05,51,8.70
2015,05,31,05,52,8.70
2015,05,31,05,53,8.70
2015,05,31,05,54,8.70
2015,05,31,05,55,8.70
2015,05,31,05,56,8.70
2015,05,31,05,57,8.70
2015,05,31,05,58,8.70
2015,05,31,05,59,8.70
2015,05,31,06,00,8.70
2015,05,31,06,01,8.70
2015,05,31,06,02,8.70
2015,05,31,06,03,8.80
2015,05,31,06,04,8.80
2015,05,31,06,05,8.80
2015,05,31,06,06,8.80
2015,05,31,06,07,8.80
2015,05,31,06,08,8.80
2015,05,31,06,09,8.80
2015,05,31,06,10,8.80
2015,05,31,06,11,8.90
2015,05,31,06,12,8.90
2015,05,31,06,13,8.90
2015,05,31,06,14,8.90
2015,05,31,06,15,8.90
2015,05,31,06,16,8.90
2015,05,31,06,17,8.90
2015,05,31,06,18,8.90
2015,05,31,06,19,9.00
2015,05,31,06,20,9.00
2015,05,31,06,21,9.00
2015,05,31,06,22,9.00
2015,05,31,06,23,9.10
2015,05,31,06,24,9.10
2015,05,31,06,25,9.10
2015,05,31,06,26,9.10
2015,05,31,06,27,9.10
2015,05,31,06,28,9.20
2015,05,31,06,29,9.20
2015,05,31,06,30,9.20
2015,05,31,06,31,9.20
2015,05,31,06,32,9.20
2015,05,31,06,33,9.20
2015,05,31,06,34,9.20
2015,05,31,06,35,9.20
2015,05,31,06,36,9.20
2015,05,31,06,37,9.20
2015,05,31,06,38,9.20
2015,05,31,06,39,9.30
2015,05,31,06,40,9.30
2015,05,31,06,41,9.30
2015,05,31,06,42,9.30
2015,05,31,06,43,9.30
2015,05,31,06,44,9.30
2015,05,31,06,45,9.30
2015,05,31,06,46,9.40
2015,05,31,06,47,9.40
2015,05,31,06,48,9.40
2015,05,31,06,49,9.50
2015,05,31,06,50,9.50
2015,05,31,06,51,9.60
2015,05,31,06,52,9.60
2015,05,31,06,53,9.70
2015,05,31,06,54,9.70
2015,05,31,06,55,9.70
2015,05,31,06,56,9.80
2015,05,31,06,57,9.80
2015,05,31,06,58,9.90
2015,05,31,06,59,9.90
2015,05,31,07,00,9.90
2015,05,31,07,01,10.00
2015,05,31,07,02,10.10
2015,05,31,07,03,10.10
2015,05,31,07,04,10.10
2015,05,31,07,05,10.10
2015,05,31,07,06,10.10
2015,05,31,07,07,10.20
2015,05,31,07,08,10.20
2015,05,31,07,09,10.30
2015,05,31,07,10,10.30
2015,05,31,07,11,10.40
2015,05,31,07,12,10.40
2015,05,31,07,13,10.40
2015,05,31,07,14,10.40
2015,05,31,07,15,10.40
2015,05,31,07,16,10.40
2015,05,31,07,17,10.50
2015,05,31,07,18,10.60
2015,05,31,07,19,10.60
2015,05,31,07,20,10.70
2015,05,31,07,21,10.70
2015,05,31,07,22,10.80
2015,05,31,07,23,10.90
2015,05,31,07,24,10.90
2015,05,31,07,25,10.90
2015,05,31,07,26,10.90
2015,05,31,07,27,10.90
2015,05,31,07,28,10.90
2015,05,31,07,29,10.90
2015,05,31,07,30,10.90
2015,05,31,07,31,10.90
2015,05,31,07,32,10.90
2015,05,31,07,33,10.90
2015,05,31,07,34,10.90
2015,05,31,07,35,10.90
2015,05,31,07,36,10.90
2015,05,31,07,37,10.90
2015,05,31,07,38,10.90
2015,05,31,07,39,10.90
2015,05,31,07,40,11.00
2015,05,31,07,41,11.10
2015,05,31,07,42,11.10
2015,05,31,07,43,11.10
2015,05,31,07,44,11.20
2015,05,31,07,45,11.20
2015,05,31,07,46,11.30
2015,05,31,07,47,11.40
2015,05,31,07,48,11.50
2015,05,31,07,49,11.60
2015,05,31,07,50,11.60
2015,05,31,07,51,11.70
2015,05,31,07,52,11.80
2015,05,31,07,53,11.80
2015,05,31,07,54,11.80
2015,05,31,07,55,11.90
2015,05,31,07,56,12.00
2015,05,31,07,57,12.10
2015,05,31,07,58,12.20
2015,05,31,07,59,12.30
2015,05,31,08,00,12.30
2015,05,31,08,01,12.50
2015,05,31,08,02,12.60
2015,05,31,08,03,12.60
2015,05,31,08,04,12.70
2015,05,31,08,05,12.80
2015,05,31,08,06,12.90
2015,05,31,08,07,13.00
2015,05,31,08,08,13.10
2015,05,31,08,09,13.20
2015,05,31,08,10,13.20
2015,05,31,08,11,13.30
2015,05,31,08,12,13.50
2015,05,31,08,13,13.60
2015,05,31,08,14,13.70
2015,05,31,08,15,13.80
2015,05,31,08,16,13.90
2015,05,31,08,17,14.00
2015,05,31,08,18,14.00
2015,05,31,08,19,14.10
2015,05,31,08,20,14.20
2015,05,31,08,21,14.20
2015,05,31,08,22,14.40
2015,05,31,08,23,14.50
2015,05,31,08,24,14.60
2015,05,31,08,25,14.50
2015,05,31,08,26,14.50
2015,05,31,08,27,14.50
2015,05,31,08,28,14.60
2015,05,31,08,29,14.50
2015,05,31,08,30,14.50
2015,05,31,08,31,14.50
2015,05,31,08,32,14.50
2015,05,31,08,33,14.50
2015,05,31,08,34,14.50
2015,05,31,08,35,14.60
2015,05,31,08,36,14.60
2015,05,31,08,37,14.60
2015,05,31,08,38,14.60
2015,05,31,08,39,14.60
2015,05,31,08,40,14.60
2015,05,31,08,41,14.60
2015,05,31,08,42,14.60
2015,05,31,08,43,14.60
2015,05,31,08,44,14.60
2015,05,31,08,45,14.50
2015,05,31,08,46,14.40
2015,05,31,08,47,14.40
2015,05,31,08,48,14.40
2015,05,31,08,49,14.40
2015,05,31,08,50,14.30
2015,05,31,08,51,14.20
2015,05,31,08,52,14.10
2015,05,31,08,53,14.10
2015,05,31,08,54,14.10
2015,05,31,08,55,14.00
2015,05,31,08,56,14.00
2015,05,31,08,57,13.90
2015,05,31,08,58,13.80
2015,05,31,08,59,13.70
2015,05,31,09,00,13.40
2015,05,31,09,01,13.20
2015,05,31,09,02,13.00
2015,05,31,09,03,12.90
2015,05,31,09,04,12.80
2015,05,31,09,05,12.80
2015,05,31,09,06,12.80
2015,05,31,09,07,12.80
2015,05,31,09,08,12.80
2015,05,31,09,09,12.80
2015,05,31,09,10,12.80
2015,05,31,09,11,12.80
2015,05,31,09,12,12.80
2015,05,31,09,13,12.80
2015,05,31,09,14,12.90
2015,05,31,09,15,12.90
2015,05,31,09,16,12.90
2015,05,31,09,17,13.00
2015,05,31,09,18,13.00
2015,05,31,09,19,13.10
2015,05,31,09,20,13.10
2015,05,31,09,21,13.10
2015,05,31,09,22,13.20
2015,05,31,09,23,13.20
2015,05,31,09,24,13.30
2015,05,31,09,25,13.30
2015,05,31,09,26,13.30
2015,05,31,09,27,13.30
2015,05,31,09,28,13.30
2015,05,31,09,29,13.40
2015,05,31,09,30,13.40
2015,05,31,09,31,13.50
2015,05,31,09,32,13.50
2015,05,31,09,33,13.60
2015,05,31,09,34,13.60
2015,05,31,09,35,13.60
2015,05,31,09,36,13.60
2015,05,31,09,37,13.70
2015,05,31,09,38,13.70
2015,05,31,09,39,13.70
2015,05,31,09,40,13.60
2015,05,31,09,41,13.60
2015,05,31,09,42,13.60
2015,05,31,09,43,13.60
2015,05,31,09,44,13.70
2015,05,31,09,45,13.80
2015,05,31,09,46,13.90
2015,05,31,09,47,14.00
2015,05,31,09,48,14.10
2015,05,31,09,49,14.00
2015,05,31,09,50,14.00
2015,05,31,09,51,14.00
2015,05,31,09,52,14.00
2015,05,31,09,53,14.00
2015,05,31,09,54,14.00
2015,05,31,09,55,14.00
2015,05,31,09,56,14.00
2015,05,31,09,57,14.00
2015,05,31,09,58,14.10
2015,05,31,09,59,14.00
2015,05,31,10,00,14.00
2015,05,31,10,01,14.10
2015,05,31,10,02,14.10
2015,05,31,10,03,14.20
2015,05,31,10,04,14.30
2015,05,31,10,05,14.50
2015,05,31,10,06,14.50
2015,05,31,10,07,14.60
2015,05,31,10,08,14.50
2015,05,31,10,09,14.50
2015,05,31,10,10,14.50
2015,05,31,10,11,14.40
2015,05,31,10,12,14.30
2015,05,31,10,13,14.20
2015,05,31,10,14,14.20
2015,05,31,10,15,14.30
2015,05,31,10,16,14.20
2015,05,31,10,17,14.20
2015,05,31,10,18,14.20
2015,05,31,10,19,14.20
2015,05,31,10,20,14.20
2015,05,31,10,21,14.20
2015,05,31,10,22,14.20
2015,05,31,10,23,14.20
2015,05,31,10,24,14.20
2015,05,31,10,25,14.30
2015,05,31,10,26,14.30
2015,05,31,10,27,14.30
2015,05,31,10,28,14.30
2015,05,31,10,29,14.40
2015,05,31,10,30,14.30
2015,05,31,10,31,14.20
2015,05,31,10,32,14.20
2015,05,31,10,33,14.20
2015,05,31,10,34,14.10
2015,05,31,10,35,14.00
2015,05,31,10,36,14.00
2015,05,31,10,37,13.90
2015,05,31,10,38,13.90
2015,05,31,10,39,13.90
2015,05,31,10,40,13.90
2015,05,31,10,41,13.90
2015,05,31,10,42,13.90
2015,05,31,10,43,13.90
2015,05,31,10,44,13.80
2015,05,31,10,45,13.90
2015,05,31,10,46,13.90
2015,05,31,10,47,13.80
2015,05,31,10,48,13.90
2015,05,31,10,49,13.90
2015,05,31,10,50,13.90
2015,05,31,10,51,13.90
2015,05,31,10,52,13.80
2015,05,31,10,53,13.80
2015,05,31,10,54,13.80
2015,05,31,10,55,13.80
2015,05,31,10,56,13.90
2015,05,31,10,57,13.90
2015,05,31,10,58,13.90
2015,05,31,10,59,13.90
2015,05,31,11,00,13.80
2015,05,31,11,01,13.90
2015,05,31,11,02,13.90
2015,05,31,11,03,13.90
2015,05,31,11,04,13.80
2015,05,31,11,05,13.80
2015,05,31,11,06,13.70
2015,05,31,11,07,13.70
2015,05,31,11,08,13.70
2015,05,31,11,09,13.80
2015,05,31,11,10,13.80
2015,05,31,11,11,13.80
2015,05,31,11,12,13.80
2015,05,31,11,13,13.90
2015,05,31,11,14,13.90
2015,05,31,11,15,13.90
2015,05,31,11,16,13.90
2015,05,31,11,17,13.90
2015,05,31,11,18,13.90
2015,05,31,11,19,13.80
2015,05,31,11,20,13.80
2015,05,31,11,21,13.80
2015,05,31,11,22,13.90
2015,05,31,11,23,13.80
2015,05,31,11,24,13.80
2015,05,31,11,25,13.80
2015,05,31,11,26,13.80
2015,05,31,11,27,13.90
2015,05,31,11,28,13.90
2015,05,31,11,29,13.90
2015,05,31,11,30,13.90
2015,05,31,11,31,14.00
2015,05,31,11,32,13.90
2015,05,31,11,33,13.90
2015,05,31,11,34,13.80
2015,05,31,11,35,13.80
2015,05,31,11,36,13.80
2015,05,31,11,37,13.80
2015,05,31,11,38,13.70
2015,05,31,11,39,13.70
2015,05,31,11,40,13.70
2015,05,31,11,41,13.70
2015,05,31,11,42,13.70
2015,05,31,11,43,13.90
2015,05,31,11,44,13.90
2015,05,31,11,45,14.00
2015,05,31,11,46,14.20
2015,05,31,11,47,14.20
2015,05,31,11,48,14.20
2015,05,31,11,49,14.20
2015,05,31,11,50,14.20
2015,05,31,11,51,14.20
2015,05,31,11,52,14.20
2015,05,31,11,53,14.20
2015,05,31,11,54,14.10
2015,05,31,11,55,14.10
2015,05,31,11,56,14.10
2015,05,31,11,57,14.20
2015,05,31,11,58,14.20
2015,05,31,11,59,14.20
2015,05,31,12,00,14.20
2015,05,31,12,01,14.20
2015,05,31,12,02,14.20
2015,05,31,12,03,14.20
2015,05,31,12,04,14.30
2015,05,31,12,05,14.30
2015,05,31,12,06,14.40
2015,05,31,12,07,14.50
2015,05,31,12,08,14.50
2015,05,31,12,09,14.40
2015,05,31,12,10,14.40
2015,05,31,12,11,14.40
2015,05,31,12,12,14.30
2015,05,31,12,13,14.30
2015,05,31,12,14,14.40
2015,05,31,12,15,14.50
2015,05,31,12,16,14.60
2015,05,31,12,17,14.70
2015,05,31,12,18,14.80
2015,05,31,12,19,14.80
2015,05,31,12,20,14.80
2015,05,31,12,21,14.80
2015,05,31,12,22,14.80
2015,05,31,12,23,14.90
2015,05,31,12,24,14.90
2015,05,31,12,25,14.80
2015,05,31,12,26,14.70
2015,05,31,12,27,14.70
2015,05,31,12,28,14.70
2015,05,31,12,29,14.80
2015,05,31,12,30,14.80
2015,05,31,12,31,14.80
2015,05,31,12,32,14.80
2015,05,31,12,33,14.80
2015,05,31,12,34,14.90
2015,05,31,12,35,14.90
2015,05,31,12,36,15.00
2015,05,31,12,37,15.00
2015,05,31,12,38,15.00
2015,05,31,12,39,15.00
2015,05,31,12,40,15.00
2015,05,31,12,41,15.00
2015,05,31,12,42,15.10
2015,05,31,12,43,15.20
2015,05,31,12,44,15.20
2015,05,31,12,45,15.20
2015,05,31,12,46,15.30
2015,05,31,12,47,15.30
2015,05,31,12,48,15.30
2015,05,31,12,49,15.30
2015,05,31,12,50,15.30
2015,05,31,12,51,15.30
2015,05,31,12,52,15.30
2015,05,31,12,53,15.40
2015,05,31,12,54,15.50
2015,05,31,12,55,15.50
2015,05,31,12,56,15.50
2015,05,31,12,57,15.50
2015,05,31,12,58,15.60
2015,05,31,12,59,15.60
2015,05,31,13,00,15.70
2015,05,31,13,01,15.70
2015,05,31,13,02,15.90
2015,05,31,13,03,16.00
2015,05,31,13,04,16.10
2015,05,31,13,05,16.20
2015,05,31,13,06,16.40
2015,05,31,13,07,16.40
2015,05,31,13,08,16.40
2015,05,31,13,09,16.40
2015,05,31,13,10,16.60
2015,05,31,13,11,16.70
2015,05,31,13,12,16.70
2015,05,31,13,13,16.80
2015,05,31,13,14,16.90
2015,05,31,13,15,16.90
2015,05,31,13,16,16.90
2015,05,31,13,17,16.80
2015,05,31,13,18,16.80
2015,05,31,13,19,16.90
2015,05,31,13,20,16.90
2015,05,31,13,21,17.00
2015,05,31,13,22,17.10
2015,05,31,13,23,17.00
2015,05,31,13,24,16.90
2015,05,31,13,25,16.90
2015,05,31,13,26,16.80
2015,05,31,13,27,16.80
2015,05,31,13,28,16.80
2015,05,31,13,29,16.80
2015,05,31,13,30,16.80
2015,05,31,13,31,16.80
2015,05,31,13,32,16.80
2015,05,31,13,33,16.90
2015,05,31,13,34,17.00
2015,05,31,13,35,17.10
2015,05,31,13,36,17.00
2015,05,31,13,37,16.90
2015,05,31,13,38,16.90
2015,05,31,13,39,16.80
2015,05,31,13,40,16.80
2015,05,31,13,41,16.80
2015,05,31,13,42,16.80
2015,05,31,13,43,16.90
2015,05,31,13,44,16.90
2015,05,31,13,45,16.90
2015,05,31,13,46,16.90
2015,05,31,13,47,16.90
2015,05,31,13,48,16.90
2015,05,31,13,49,16.80
2015,05,31,13,50,16.80
2015,05,31,13,51,16.80
2015,05,31,13,52,16.80
2015,05,31,13,53,16.90
2015,05,31,13,54,17.00
2015,05,31,13,55,17.00
2015,05,31,13,56,17.00
2015,05,31,13,57,17.10
2015,05,31,13,58,17.10
2015,05,31,13,59,17.20
2015,05,31,14,00,17.30
2015,05,31,14,01,17.30
2015,05,31,14,02,17.30
2015,05,31,14,03,17.20
2015,05,31,14,04,17.20
2015,05,31,14,05,17.20
2015,05,31,14,06,17.20
2015,05,31,14,07,17.20
2015,05,31,14,08,17.20
2015,05,31,14,09,17.20
2015,05,31,14,10,17.20
2015,05,31,14,11,17.20
2015,05,31,14,12,17.10
2015,05,31,14,13,17.10
2015,05,31,14,14,17.10
2015,05,31,14,15,17.00
2015,05,31,14,16,17.00
2015,05,31,14,17,17.00
2015,05,31,14,18,17.10
2015,05,31,14,19,17.20
2015,05,31,14,20,17.20
2015,05,31,14,21,17.20
2015,05,31,14,22,17.20
2015,05,31,14,23,17.10
2015,05,31,14,24,17.10
2015,05,31,14,25,17.10
2015,05,31,14,26,17.00
2015,05,31,14,27,17.00
2015,05,31,14,28,17.00
2015,05,31,14,29,17.00
2015,05,31,14,30,17.00
2015,05,31,14,31,17.00
2015,05,31,14,32,17.00
2015,05,31,14,33,17.10
2015,05,31,14,34,17.00
2015,05,31,14,35,17.00
2015,05,31,14,36,17.00
2015,05,31,14,37,17.00
2015,05,31,14,38,17.00
2015,05,31,14,39,17.00
2015,05,31,14,40,17.00
2015,05,31,14,41,17.10
2015,05,31,14,42,17.20
2015,05,31,14,43,17.30
2015,05,31,14,44,17.30
2015,05,31,14,45,17.30
2015,05,31,14,46,17.30
2015,05,31,14,47,17.30
2015,05,31,14,48,17.30
2015,05,31,14,49,17.30
2015,05,31,14,50,17.30
2015,05,31,14,51,17.30
2015,05,31,14,52,17.30
2015,05,31,14,53,17.40
2015,05,31,14,54,17.40
2015,05,31,14,55,17.50
2015,05,31,14,56,17.50
2015,05,31,14,57,17.60
2015,05,31,14,58,17.60
2015,05,31,14,59,17.70
2015,05,31,15,00,17.80
2015,05,31,15,01,17.80
2015,05,31,15,02,17.90
2015,05,31,15,03,17.90
2015,05,31,15,04,17.90
2015,05,31,15,05,17.90
2015,05,31,15,06,18.00
2015,05,31,15,07,18.10
2015,05,31,15,08,18.20
2015,05,31,15,09,18.20
2015,05,31,15,10,18.30
2015,05,31,15,11,18.50
2015,05,31,15,12,18.50
2015,05,31,15,13,18.50
2015,05,31,15,14,18.60
2015,05,31,15,15,18.60
2015,05,31,15,16,18.60
2015,05,31,15,17,18.60
2015,05,31,15,18,18.60
2015,05,31,15,19,18.60
2015,05,31,15,20,18.60
2015,05,31,15,21,18.50
2015,05,31,15,22,18.50
2015,05,31,15,23,18.40
2015,05,31,15,24,18.40
2015,05,31,15,25,18.40
2015,05,31,15,26,18.30
2015,05,31,15,27,18.30
2015,05,31,15,28,18.20
2015,05,31,15,29,18.20
2015,05,31,15,30,18.20
2015,05,31,15,31,18.20
2015,05,31,15,32,18.10
2015,05,31,15,33,18.00
2015,05,31,15,34,17.90
2015,05,31,15,35,17.90
2015,05,31,15,36,17.80
2015,05,31,15,37,17.70
2015,05,31,15,38,17.70
2015,05,31,15,39,17.60
2015,05,31,15,40,17.60
2015,05,31,15,41,17.70
2015,05,31,15,42,17.60
2015,05,31,15,43,17.60
2015,05,31,15,44,17.60
2015,05,31,15,45,17.50
2015,05,31,15,46,17.40
2015,05,31,15,47,17.40
2015,05,31,15,48,17.30
2015,05,31,15,49,17.30
2015,05,31,15,50,17.30
2015,05,31,15,51,17.30
2015,05,31,15,52,17.30
2015,05,31,15,53,17.30
2015,05,31,15,54,17.30
2015,05,31,15,55,17.30
2015,05,31,15,56,17.30
2015,05,31,15,57,17.40
2015,05,31,15,58,17.50
2015,05,31,15,59,17.60
2015,05,31,16,00,17.60
2015,05,31,16,01,17.50
2015,05,31,16,02,17.40
2015,05,31,16,03,17.30
2015,05,31,16,04,17.30
2015,05,31,16,05,17.30
2015,05,31,16,06,17.30
2015,05,31,16,07,17.40
2015,05,31,16,08,17.40
2015,05,31,16,09,17.40
2015,05,31,16,10,17.50
2015,05,31,16,11,17.50
2015,05,31,16,12,17.50
2015,05,31,16,13,17.60
2015,05,31,16,14,17.60
2015,05,31,16,15,17.70
2015,05,31,16,16,17.80
2015,05,31,16,17,17.90
2015,05,31,16,18,17.90
2015,05,31,16,19,17.90
2015,05,31,16,20,17.90
2015,05,31,16,21,17.90
2015,05,31,16,22,17.90
2015,05,31,16,23,17.90
2015,05,31,16,24,18.00
2015,05,31,16,25,18.10
2015,05,31,16,26,18.10
2015,05,31,16,27,18.10
2015,05,31,16,28,18.20
2015,05,31,16,29,18.20
2015,05,31,16,30,18.20
2015,05,31,16,31,18.20
2015,05,31,16,32,18.20
2015,05,31,16,33,18.20
2015,05,31,16,34,18.20
2015,05,31,16,35,18.20
2015,05,31,16,36,18.20
2015,05,31,16,37,18.20
2015,05,31,16,38,18.20
2015,05,31,16,39,18.20
2015,05,31,16,40,18.20
2015,05,31,16,41,18.20
2015,05,31,16,42,18.30
2015,05,31,16,43,18.30
2015,05,31,16,44,18.40
2015,05,31,16,45,18.50
2015,05,31,16,46,18.50
2015,05,31,16,47,18.60
2015,05,31,16,48,18.70
2015,05,31,16,49,18.70
2015,05,31,16,50,18.70
2015,05,31,16,51,18.70
2015,05,31,16,52,18.60
2015,05,31,16,53,18.60
2015,05,31,16,54,18.70
2015,05,31,16,55,18.70
2015,05,31,16,56,18.70
2015,05,31,16,57,18.70
2015,05,31,16,58,18.70
2015,05,31,16,59,18.70
2015,05,31,17,00,18.70
2015,05,31,17,01,18.70
2015,05,31,17,02,18.80
2015,05,31,17,03,18.80
2015,05,31,17,04,18.90
2015,05,31,17,05,18.90
2015,05,31,17,06,18.90
2015,05,31,17,07,18.90
2015,05,31,17,08,18.90
2015,05,31,17,09,18.90
2015,05,31,17,10,18.90
2015,05,31,17,11,19.00
2015,05,31,17,12,19.10
2015,05,31,17,13,19.10
2015,05,31,17,14,19.10
2015,05,31,17,15,19.10
2015,05,31,17,16,19.10
2015,05,31,17,17,19.10
2015,05,31,17,18,19.10
2015,05,31,17,19,19.10
2015,05,31,17,20,19.10
2015,05,31,17,21,19.20
2015,05,31,17,22,19.20
2015,05,31,17,23,19.10
2015,05,31,17,24,19.10
2015,05,31,17,25,19.00
2015,05,31,17,26,18.90
2015,05,31,17,27,18.90
2015,05,31,17,28,18.90
2015,05,31,17,29,19.00
2015,05,31,17,30,19.10
2015,05,31,17,31,19.10
2015,05,31,17,32,19.10
2015,05,31,17,33,19.10
2015,05,31,17,34,19.20
2015,05,31,17,35,19.20
2015,05,31,17,36,19.20
2015,05,31,17,37,19.20